TimeCST,TemperatureF,Dew PointF,Humidity,Sea Level PressureIn,VisibilityMPH,Wind Direction,Wind SpeedMPH,Gust SpeedMPH,PrecipitationIn,Events,Conditions,WindDirDegrees,DateUTC
12:15 AM,41.0,37.4,87,30.16,5.0,NE,13.8,-,0.01,,Drizzle,50,2013-01-10 06:15:00
2:15 AM,41.0,39.2,93,30.10,3.0,ENE,11.5,-,0.02,Rain,Rain,60,2013-01-10 08:15:00
2:35 AM,41.0,39.2,93,30.09,5.0,ENE,12.7,17.3,0.04,Rain,Light Rain,60,2013-01-10 08:35:00
2:55 AM,41.0,39.2,93,30.08,7.0,ENE,12.7,-,0.05,Rain,Light Rain,60,2013-01-10 08:55:00
3:15 AM,41.0,39.2,93,30.07,7.0,ENE,10.4,-,N/A,Rain,Light Rain,60,2013-01-10 09:15:00
3:35 AM,41.0,39.2,93,30.06,5.0,ENE,10.4,-,0.03,Rain,Rain,60,2013-01-10 09:35:00
3:55 AM,41.0,39.2,93,30.05,7.0,ENE,11.5,-,0.05,Rain,Rain,60,2013-01-10 09:55:00
4:15 AM,41.0,39.2,93,30.03,5.0,ENE,9.2,-,0.01,Rain,Light Rain,60,2013-01-10 10:15:00
4:35 AM,41.0,39.2,93,30.01,5.0,NE,10.4,-,0.01,,Light Drizzle,50,2013-01-10 10:35:00
4:55 AM,41.0,39.2,93,30.01,4.0,ENE,9.2,-,0.01,Rain,Light Rain,60,2013-01-10 10:55:00
5:15 AM,41.0,39.2,93,30.02,2.5,ENE,6.9,-,0.07,Rain,Rain,60,2013-01-10 11:15:00
5:35 AM,41.0,39.2,93,30.01,4.0,NE,3.5,-,0.11,Rain,Light Rain,40,2013-01-10 11:35:00
6:15 AM,41.0,39.2,93,30.02,7.0,NNE,4.6,-,0.01,Rain,Light Rain,30,2013-01-10 12:15:00
6:55 AM,41.0,39.2,93,30.00,4.0,North,4.6,-,0.02,,Overcast,10,2013-01-10 12:55:00
7:15 AM,41.0,39.2,93,29.98,5.0,North,3.5,-,N/A,,Overcast,360,2013-01-10 13:15:00
7:55 AM,41.0,39.2,93,29.98,3.0,ENE,3.5,-,0.01,,Overcast,60,2013-01-10 13:55:00
8:15 AM,41.0,39.2,93,29.98,1.8,NE,3.5,-,N/A,,Overcast,50,2013-01-10 14:15:00
8:35 AM,41.0,39.2,93,29.96,0.2,NE,5.8,-,N/A,Fog,Fog,40,2013-01-10 14:35:00
8:55 AM,41.0,39.2,93,29.95,0.2,North,4.6,-,N/A,Fog,Fog,360,2013-01-10 14:55:00
9:15 AM,41.0,41.0,100,29.94,0.2,NNE,5.8,-,N/A,Fog,Fog,20,2013-01-10 15:15:00
9:35 AM,41.0,41.0,100,29.94,0.2,NNE,4.6,-,N/A,Fog,Fog,30,2013-01-10 15:35:00
9:55 AM,41.0,41.0,100,29.94,0.2,NE,4.6,-,N/A,,Unknown,50,2013-01-10 15:55:00
10:15 AM,42.8,41.0,93,29.93,0.2,NNE,5.8,-,N/A,,Unknown,30,2013-01-10 16:15:00
10:35 AM,42.8,41.0,93,29.93,0.2,Calm,Calm,-,N/A,Fog,Fog,0,2013-01-10 16:35:00
10:55 AM,42.8,41.0,93,29.93,0.2,NW,3.5,-,N/A,Fog,Fog,310,2013-01-10 16:55:00
11:15 AM,42.8,41.0,93,29.94,0.5,West,5.8,-,N/A,Fog,Fog,280,2013-01-10 17:15:00
11:55 AM,42.8,41.0,93,29.91,1.2,Calm,Calm,-,N/A,Rain,Rain,0,2013-01-10 17:55:00
12:15 PM,42.8,42.8,100,29.91,2.0,West,4.6,-,N/A,,Overcast,280,2013-01-10 18:15:00
12:35 PM,42.8,42.8,100,29.89,2.0,West,3.5,-,N/A,,Overcast,270,2013-01-10 18:35:00
12:55 PM,42.8,42.8,100,29.88,4.0,West,3.5,-,N/A,,Overcast,280,2013-01-10 18:55:00
1:15 PM,44.6,42.8,93,29.87,5.0,WNW,4.6,-,N/A,,Overcast,290,2013-01-10 19:15:00
1:35 PM,44.6,42.8,93,29.85,3.0,WNW,4.6,-,N/A,,Overcast,300,2013-01-10 19:35:00
1:55 PM,44.6,42.8,93,29.83,7.0,WNW,5.8,-,N/A,,Overcast,300,2013-01-10 19:55:00
2:15 PM,44.6,42.8,93,29.83,10.0,WNW,4.6,-,N/A,,Overcast,290,2013-01-10 20:15:00
2:35 PM,44.6,42.8,93,29.83,10.0,WNW,3.5,-,N/A,,Overcast,300,2013-01-10 20:35:00
2:55 PM,44.6,42.8,93,29.83,10.0,WNW,4.6,-,N/A,,Overcast,290,2013-01-10 20:55:00
3:15 PM,46.4,42.8,87,29.83,10.0,WSW,6.9,-,N/A,,Overcast,250,2013-01-10 21:15:00
3:35 PM,44.6,42.8,93,29.85,10.0,WSW,9.2,-,N/A,,Overcast,240,2013-01-10 21:35:00
3:55 PM,46.4,42.8,87,29.85,10.0,WSW,8.1,-,N/A,,Overcast,250,2013-01-10 21:55:00
4:15 PM,46.4,44.6,93,29.85,5.0,WSW,5.8,-,N/A,,Overcast,250,2013-01-10 22:15:00
4:35 PM,46.4,44.6,93,29.84,10.0,SW,4.6,-,N/A,,Overcast,220,2013-01-10 22:35:00
4:55 PM,46.4,44.6,93,29.83,10.0,SSW,3.5,-,N/A,,Overcast,200,2013-01-10 22:55:00
5:15 PM,46.4,44.6,93,29.84,10.0,SSW,5.8,-,N/A,,Overcast,200,2013-01-10 23:15:00
5:35 PM,44.6,42.8,93,29.82,10.0,SSE,4.6,-,N/A,,Mostly Cloudy,150,2013-01-10 23:35:00
5:55 PM,42.8,41.0,93,29.82,10.0,SW,5.8,-,N/A,,Scattered Clouds,220,2013-01-10 23:55:00
6:15 PM,42.8,41.0,93,29.80,10.0,South,3.5,-,N/A,,Clear,180,2013-01-11 00:15:00
6:35 PM,42.8,41.0,93,29.79,10.0,SSE,3.5,-,N/A,,Scattered Clouds,150,2013-01-11 00:35:00
6:55 PM,41.0,37.4,87,29.79,3.0,South,5.8,-,N/A,,Scattered Clouds,170,2013-01-11 00:55:00
7:15 PM,37.4,37.4,100,29.80,10.0,South,6.9,-,N/A,,Clear,190,2013-01-11 01:15:00
7:35 PM,39.2,37.4,93,29.80,10.0,SSW,5.8,-,N/A,,Mostly Cloudy,200,2013-01-11 01:35:00
7:55 PM,41.0,41.0,100,29.80,10.0,SW,6.9,-,N/A,,Overcast,220,2013-01-11 01:55:00
8:15 PM,41.0,41.0,100,29.79,10.0,South,6.9,-,N/A,,Scattered Clouds,180,2013-01-11 02:15:00
8:35 PM,41.0,39.2,93,29.78,10.0,SSE,6.9,-,N/A,,Clear,160,2013-01-11 02:35:00
8:55 PM,39.2,37.4,93,29.79,10.0,SSE,5.8,-,N/A,,Clear,160,2013-01-11 02:55:00
9:15 PM,41.0,37.4,87,29.79,5.0,South,8.1,-,N/A,,Clear,170,2013-01-11 03:15:00
9:35 PM,42.8,42.8,100,29.79,10.0,South,11.5,16.1,N/A,,Clear,180,2013-01-11 03:35:00
9:55 PM,42.8,42.8,100,29.78,10.0,South,12.7,-,N/A,,Scattered Clouds,190,2013-01-11 03:55:00
10:15 PM,44.6,42.8,93,29.78,10.0,South,13.8,-,N/A,,Clear,190,2013-01-11 04:15:00
10:35 PM,44.6,42.8,93,29.76,10.0,South,12.7,-,N/A,,Clear,180,2013-01-11 04:35:00
10:55 PM,44.6,42.8,93,29.74,10.0,South,18.4,23.0,N/A,,Clear,170,2013-01-11 04:55:00
11:35 PM,44.6,42.8,93,29.73,10.0,South,16.1,24.2,N/A,,Clear,170,2013-01-11 05:35:00
11:55 PM,44.6,42.8,93,29.73,10.0,South,18.4,25.3,N/A,,Clear,180,2013-01-11 05:55:00